This is the latest recevied weather packets stored in our database for station/object OE7AOT-10. If no packets are shown the sender has not sent any weather packets the latest 10 day(s).
| Time | Temp. | Humidity | Pressure | Rain* | Wind** | Luminosity | Snow |
|---|---|---|---|---|---|---|---|
| 1778058367 | 23.89° C | 32% | 1015.9 hPa | - | - | - | - |
| 1778057467 | 23.89° C | 33% | 1016 hPa | - | - | - | - |
| 1778056567 | 23.33° C | 33% | 1015.8 hPa | - | - | - | - |
| 1778055667 | 22.78° C | 33% | 1016 hPa | - | - | - | - |
| 1778054766 | 22.78° C | 33% | 1016.3 hPa | - | - | - | - |
| 1778053866 | 22.78° C | 32% | 1016.2 hPa | - | - | - | - |
| 1778052965 | 22.78° C | 32% | 1016.4 hPa | - | - | - | - |
| 1778052065 | 23.33° C | 29% | 1016.4 hPa | - | - | - | - |
| 1778051164 | 23.33° C | 29% | 1016.7 hPa | - | - | - | - |
| 1778050264 | 23.89° C | 29% | 1016.8 hPa | - | - | - | - |
| 1778049364 | 23.89° C | 29% | 1017 hPa | - | - | - | - |
| 1778048464 | 23.89° C | 29% | 1017.2 hPa | - | - | - | - |
| 1778047563 | 23.89° C | 29% | 1017.4 hPa | - | - | - | - |
| 1778046663 | 23.89° C | 29% | 1017.6 hPa | - | - | - | - |
| 1778045763 | 23.89° C | 29% | 1017.6 hPa | - | - | - | - |
| 1778044863 | 23.89° C | 29% | 1017.7 hPa | - | - | - | - |
| 1778043963 | 23.89° C | 29% | 1017.8 hPa | - | - | - | - |
| 1778043063 | 23.89° C | 29% | 1017.8 hPa | - | - | - | - |
| 1778042163 | 23.89° C | 29% | 1018.1 hPa | - | - | - | - |
| 1778041263 | 23.89° C | 29% | 1018.1 hPa | - | - | - | - |
| 1778040362 | 23.89° C | 29% | 1017.9 hPa | - | - | - | - |
| 1778039462 | 23.89° C | 29% | 1017.9 hPa | - | - | - | - |
| 1778038561 | 24.44° C | 29% | 1018.1 hPa | - | - | - | - |
| 1778037661 | 24.44° C | 28% | 1018.4 hPa | - | - | - | - |
| 1778036761 | 24.44° C | 28% | 1018.7 hPa | - | - | - | - |
* Rain since midnight (hover to see other rain measurements)
** Current wind speed in m/s (hover to see current wind gust speed)